Weather History for Glenwood, MN

Change the Weather History Date:

Tuesday, September 17, 2013

  Actual Average Record
Temperature  
Mean Temperature 55 °F -  
Max Temperature 62 °F 71 °F 94 °F (1955)
Min Temperature 48 °F 46 °F 36 °F (1959)
Degree Days  
Heating Degree Days 10    
Growing Degree Days 5 (Base 50)    
Moisture  
Dew Point 52 °F    
Average Humidity 89    
Maximum Humidity 100    
Minimum Humidity 77    
Precipitation  
Precipitation 0.00 in - - ()
Sea Level Pressure  
Sea Level Pressure 30.04 in    
Wind  
Wind Speed 11 mph (SE)    
Max Wind Speed 21 mph    
Max Gust Speed 26 mph    
Visibility 9 miles    
Events Rain    
Averages and records for this station are not official NWS values.
T = Trace of Precipitation, MM = Missing Value Source: NWS Daily Summary

Daily Weather History Graph

Daily Weather History Graph

Search for Another Location

Airport:

Trip Planner

Search our weather history database for the weather conditions in past years. The results will help you decide how hot, cold, wet, or windy it might be!

Date:

Astronomy

Sep. 17, 2013 Rise Set
Actual Time 7:02 AM CDT 7:28 PM CDT
Civil Twilight 6:32 AM CDT 7:57 PM CDT
Nautical Twilight 5:57 AM CDT 8:32 PM CDT
Astronomical Twilight 5:21 AM CDT 9:09 PM CDT
Moon 6:17 PM CDT (9/17) 4:53 AM CDT (9/17)
Length of Visible Light 13h 25m
Length of Day
12h 25m
Waxing Gibbous, 96% of the Moon is Illuminated
Sep 17
Waxing Gibbous
Sep 19
Full
Sep 26
Last Quarter
Oct 4
New
Oct 11
First Quarter

Hourly Weather History & Observations

Time (CDT) Temp. Dew Point Humidity Pressure Visibility Wind Dir Wind Speed Gust Speed Precip Events Conditions
12:13 AM 50.0 °F 48.2 °F 94% 30.20 in 10.0 mi SE 8.1 mph - N/A   Clear
12:34 AM 50.0 °F 48.2 °F 94% 30.20 in 10.0 mi SE 8.1 mph - N/A   Clear
12:53 AM 48.2 °F 46.4 °F 93% 30.20 in 10.0 mi SSE 8.1 mph - N/A   Clear
1:13 AM 50.0 °F 48.2 °F 94% 30.19 in 10.0 mi SSE 8.1 mph - N/A   Clear
1:34 AM 51.8 °F 48.2 °F 88% 30.19 in 10.0 mi SSE 8.1 mph - N/A   Clear
1:53 AM 51.8 °F 48.2 °F 88% 30.19 in 10.0 mi SSE 6.9 mph - N/A   Clear
2:13 AM 51.8 °F 48.2 °F 88% 30.19 in 10.0 mi SSE 8.1 mph - N/A   Clear
2:33 AM 50.0 °F 46.4 °F 87% 30.18 in 10.0 mi SSE 6.9 mph - N/A   Clear
2:53 AM 50.0 °F 46.4 °F 87% 30.18 in 10.0 mi SSE 5.8 mph - N/A   Clear
3:14 AM 50.0 °F 46.4 °F 87% 30.18 in 10.0 mi SSE 8.1 mph - N/A   Clear
3:33 AM 50.0 °F 48.2 °F 94% 30.18 in 10.0 mi SSE 9.2 mph - N/A   Clear
3:53 AM 50.0 °F 48.2 °F 94% 30.17 in 10.0 mi South 8.1 mph - N/A   Clear
4:13 AM 50.0 °F 46.4 °F 87% 30.17 in 10.0 mi SSE 8.1 mph - N/A   Clear
4:33 AM 50.0 °F 46.4 °F 87% 30.16 in 10.0 mi SSE 10.4 mph - N/A   Clear
4:54 AM 50.0 °F 46.4 °F 87% 30.15 in 10.0 mi SSE 10.4 mph - N/A   Clear
5:13 AM 48.2 °F 46.4 °F 93% 30.14 in 10.0 mi SSE 9.2 mph - N/A   Clear
5:33 AM 50.0 °F 48.2 °F 94% 30.13 in 10.0 mi SSE 11.5 mph - N/A   Clear
5:53 AM 48.2 °F 46.4 °F 93% 30.13 in 10.0 mi SE 8.1 mph - N/A   Clear
6:13 AM 48.2 °F 46.4 °F 93% 30.13 in 10.0 mi SE 8.1 mph - N/A   Mostly Cloudy
6:34 AM 50.0 °F 48.2 °F 94% 30.12 in 10.0 mi SE 8.1 mph - N/A   Overcast
6:53 AM 51.8 °F 48.2 °F 88% 30.12 in 10.0 mi SE 8.1 mph - N/A   Overcast
7:13 AM 51.8 °F 50.0 °F 94% 30.11 in 10.0 mi SE 9.2 mph - N/A   Overcast
7:33 AM 51.8 °F 50.0 °F 94% 30.11 in 10.0 mi SE 9.2 mph - N/A   Overcast
7:53 AM 51.8 °F 50.0 °F 94% 30.11 in 10.0 mi SE 9.2 mph - N/A   Overcast
8:14 AM 53.6 °F 51.8 °F 94% 30.11 in 10.0 mi SE 10.4 mph - N/A   Overcast
8:33 AM 53.6 °F 51.8 °F 94% 30.11 in 10.0 mi SE 9.2 mph - N/A   Overcast
8:53 AM 53.6 °F 51.8 °F 94% 30.10 in 10.0 mi SE 9.2 mph - N/A   Overcast
9:13 AM 53.6 °F 51.8 °F 94% 30.10 in 10.0 mi SE 12.7 mph - N/A   Overcast
9:33 AM 55.4 °F 51.8 °F 88% 30.09 in 10.0 mi SE 12.7 mph - N/A   Overcast
9:54 AM 55.4 °F 51.8 °F 88% 30.09 in 10.0 mi SE 11.5 mph - N/A   Overcast
10:13 AM 55.4 °F 51.8 °F 88% 30.08 in 10.0 mi SE 12.7 mph 18.4 mph N/A   Overcast
10:33 AM 57.2 °F 53.6 °F 88% 30.07 in 10.0 mi SE 16.1 mph - N/A   Overcast
10:53 AM 57.2 °F 53.6 °F 88% 30.07 in 10.0 mi SSE 18.4 mph 25.3 mph N/A   Overcast
11:13 AM 57.2 °F 53.6 °F 88% 30.06 in 10.0 mi SE 17.3 mph 23.0 mph N/A   Overcast
11:34 AM 59.0 °F 53.6 °F 82% 30.05 in 10.0 mi SSE 18.4 mph 24.2 mph N/A   Overcast
11:53 AM 60.8 °F 53.6 °F 77% 30.05 in 10.0 mi SSE 17.3 mph 21.9 mph N/A   Overcast
12:13 PM 60.8 °F 53.6 °F 77% 30.05 in 10.0 mi SSE 12.7 mph 23.0 mph N/A   Overcast
12:33 PM 60.8 °F 55.4 °F 82% 30.04 in 10.0 mi SSE 16.1 mph 21.9 mph N/A   Overcast
12:53 PM 62.6 °F 55.4 °F 77% 30.04 in 10.0 mi SSE 17.3 mph 23.0 mph N/A   Overcast
1:14 PM 62.6 °F 55.4 °F 77% 30.03 in 10.0 mi SSE 16.1 mph 21.9 mph N/A   Overcast
1:33 PM 62.6 °F 55.4 °F 77% 30.02 in 10.0 mi SSE 16.1 mph 19.6 mph N/A   Overcast
1:54 PM 62.6 °F 55.4 °F 77% 30.01 in 10.0 mi SE 20.7 mph 24.2 mph N/A   Overcast
2:13 PM 62.6 °F 55.4 °F 77% 30.00 in 10.0 mi SE 17.3 mph - N/A   Overcast
2:33 PM 62.6 °F 55.4 °F 77% 29.99 in 10.0 mi SE 13.8 mph 25.3 mph N/A   Overcast
2:53 PM 60.8 °F 55.4 °F 82% 29.99 in 10.0 mi SSE 16.1 mph 23.0 mph N/A   Overcast
3:13 PM 62.6 °F 55.4 °F 77% 29.98 in 10.0 mi SSE 17.3 mph 24.2 mph N/A   Overcast
3:34 PM 60.8 °F 55.4 °F 82% 29.98 in 10.0 mi SE 16.1 mph 23.0 mph N/A   Overcast
3:53 PM 60.8 °F 55.4 °F 82% 29.97 in 10.0 mi SE 15.0 mph - N/A   Overcast
4:13 PM 60.8 °F 55.4 °F 82% 29.97 in 10.0 mi SE 19.6 mph 26.5 mph N/A   Overcast
4:34 PM 60.8 °F 55.4 °F 82% 29.96 in 10.0 mi SSE 13.8 mph 23.0 mph N/A   Overcast
4:53 PM 59.0 °F 55.4 °F 88% 29.96 in 10.0 mi SSE 15.0 mph 23.0 mph N/A   Overcast
5:14 PM 59.0 °F 55.4 °F 88% 29.95 in 10.0 mi SE 17.3 mph - N/A   Overcast
5:33 PM 59.0 °F 55.4 °F 88% 29.95 in 10.0 mi SE 17.3 mph 23.0 mph N/A   Overcast
5:53 PM 59.0 °F 55.4 °F 88% 29.94 in 10.0 mi SE 18.4 mph 21.9 mph N/A   Overcast
6:14 PM 59.0 °F 55.4 °F 88% 29.93 in 10.0 mi SE 16.1 mph - N/A   Overcast
6:33 PM 57.2 °F 55.4 °F 94% 29.93 in 10.0 mi SE 12.7 mph 20.7 mph N/A   Overcast
6:53 PM 57.2 °F 55.4 °F 94% 29.93 in 10.0 mi SE 12.7 mph - N/A   Overcast
7:13 PM 57.2 °F 55.4 °F 94% 29.93 in 10.0 mi SE 12.7 mph 18.4 mph N/A   Overcast
7:33 PM 57.2 °F 55.4 °F 94% 29.92 in 10.0 mi SE 16.1 mph 23.0 mph N/A   Overcast
7:54 PM 57.2 °F 55.4 °F 94% 29.92 in 7.0 mi SE 17.3 mph 20.7 mph N/A Rain Light Rain
8:13 PM 57.2 °F 55.4 °F 94% 29.92 in 7.0 mi SE 13.8 mph 23.0 mph N/A   Overcast
8:33 PM 57.2 °F 55.4 °F 94% 29.92 in 7.0 mi SE 16.1 mph - N/A   Overcast
8:53 PM 57.2 °F 55.4 °F 94% 29.92 in 7.0 mi SE 15.0 mph - N/A   Overcast
9:13 PM 57.2 °F 55.4 °F 94% 29.92 in 2.5 mi SE 18.4 mph 21.9 mph N/A   Overcast
9:33 PM 55.4 °F 55.4 °F 100% 29.92 in 2.0 mi SE 12.7 mph - N/A   Overcast
9:53 PM 55.4 °F 55.4 °F 100% 29.92 in 4.0 mi SE 13.8 mph - N/A   Overcast
10:14 PM 55.4 °F 55.4 °F 100% 29.92 in 7.0 mi SE 12.7 mph - N/A   Overcast
10:33 PM 57.2 °F 55.4 °F 94% 29.91 in 7.0 mi SE 11.5 mph - N/A   Overcast
10:53 PM 57.2 °F 55.4 °F 94% 29.91 in 5.0 mi SSE 10.4 mph - N/A   Overcast
11:14 PM 57.2 °F 55.4 °F 94% 29.91 in 3.0 mi SE 9.2 mph - N/A   Overcast
11:33 PM 57.2 °F 55.4 °F 94% 29.90 in 1.8 mi SE 11.5 mph - N/A   Overcast
11:53 PM 57.2 °F 55.4 °F 94% 29.90 in 2.0 mi SE 13.8 mph - N/A   Overcast